Location: Spring Creek
(38.2870°N, 100.2160°W)
Time: 03:55:08
(UTC+00:00)

Centaur D-1AR AC-39 - Pass Details

Date: 08 May 2021
Orbit: 537 x 36243 km, 21.0° (Epoch: 22 June)

Event Time Altitude Azimuth Distance (km) Brightness Sun altitude
Exits shadow 10:00:59 16° 191° (S) 2,301 4.0 -16.8°
Maximum altitude 10:03:48 22° 155° (SSE) 2,693 4.6 -16.4°
Drops below altitude 10° 10:14:43 10° 111° (ESE) 6,856 7.3 -14.7°
Sets 10:30:43 0° 102° (ESE) 12,592 8.9 -12.1°
